Home   Weather   Altötting   Past weeks
Flag for Germany

Past Weather in Altötting, Bavaria, Germany — Yesterday and Last 2 Weeks

Now
68 °F

Clear.


Feels Like: 68 °F
Forecast: 86 / 66 °F
Wind: 7 mph from South

Location: Salzburg-Flughafen

Current Time: Jun 26, 2019 at 4:14:24 am

Latest Report: Jun 26, 2019 at 3:20 am


Visibility: N/A

Pressure: 30.21 "Hg

Humidity: 73%

Dew Point: 59 °F

Location of AltöttingLocation

Past Weather in Altötting — Graph

°F

Altötting Temperature Yesterday

Maximum temperature yesterday: 90 °F (at 4:20 pm)
Minimum temperature yesterday: 59 °F (at 4:20 am)
Average temperature yesterday: 77 °F

High & Low Weather Summary for the Past Weeks

 TemperatureHumidityPressure
High93 °F (Jun 14, 4:50 pm)100% (Jun 21, 12:20 am)30.21 "Hg (Jun 21, 12:20 am)
Low55 °F (Jun 18, 5:20 am)24% (Jun 12, 12:20 pm)29.68 "Hg (Jun 12, 11:50 am)
Average70 °F67%30.01 "Hg
* Reported Jun 11 3:20 am — Jun 26 3:20 am, Altötting. Weather by CustomWeather, © 2019

Note: Actual official high and low records may vary slightly from our data, if they occured in-between our weather recording intervals... More about our weather records

Advertising

Altötting Weather History for the Previous 24 Hours

Scroll right to see more
 ConditionsComfort  
Time TempWeatherWind HumidityBarometerVisibility
3:20 am
Wed, Jun 26
68 °FClear.7 mph73%30.21 "HgN/A
2:50 am70 °FClear.8 mph69%30.21 "HgN/A
2:20 am68 °FClear.3 mph78%30.21 "HgN/A
1:50 am68 °FClear.6 mph78%30.21 "HgN/A
1:20 am70 °FClear.3 mph73%30.21 "HgN/A
12:50 am70 °FClear.7 mph78%30.21 "HgN/A
12:20 am72 °FPassing clouds.5 mph73%30.21 "HgN/A
11:50 pm
Tue, Jun 25
73 °FPassing clouds.5 mph69%30.21 "HgN/A
11:20 pm75 °FPassing clouds.5 mph65%30.21 "HgN/A
10:50 pm77 °FClear.6 mph61%30.21 "Hg10 mi
10:20 pm75 °FClear.7 mph74%30.21 "Hg10 mi
9:50 pm77 °FClear.5 mph74%30.21 "Hg10 mi
9:20 pm79 °FClear.3 mph70%30.18 "Hg10 mi
8:50 pm82 °FSunny.5 mph62%30.18 "Hg10 mi
8:20 pm84 °FSunny.6 mph58%30.18 "Hg10 mi
7:50 pm86 °FSunny.6 mph55%30.18 "Hg10 mi
7:20 pm88 °FScattered clouds.5 mph40%30.18 "HgN/A
6:50 pm90 °FScattered clouds.6 mph38%30.18 "HgN/A
6:20 pm88 °FScattered clouds.6 mph40%30.18 "HgN/A
5:50 pm90 °FScattered clouds.6 mph36%30.18 "HgN/A
5:20 pm90 °FScattered clouds.5 mph36%30.18 "HgN/A
4:50 pm90 °FScattered clouds.6 mph38%30.18 "HgN/A
4:20 pm90 °FScattered clouds.5 mph41%30.18 "HgN/A
3:20 pm88 °FScattered clouds.7 mph40%30.18 "HgN/A
2:50 pm88 °FScattered clouds.8 mph46%30.15 "HgN/A
2:20 pm88 °FScattered clouds.9 mph49%30.15 "HgN/A
1:50 pm88 °FScattered clouds.8 mph52%30.15 "HgN/A
1:20 pm86 °FPassing clouds.7 mph52%30.15 "HgN/A
12:50 pm86 °FPassing clouds.7 mph49%30.15 "HgN/A
12:20 pm84 °FPassing clouds.7 mph55%30.15 "HgN/A
11:50 am84 °FPassing clouds.6 mph55%30.15 "HgN/A
11:20 am84 °FSunny.5 mph51%30.15 "Hg10 mi
10:50 am82 °FPassing clouds.2 mph51%30.15 "HgN/A
10:20 am81 °FSunny.2 mph54%30.15 "Hg10 mi
9:50 am79 °FPassing clouds.3 mph58%30.15 "HgN/A
9:20 am77 °FSunny.7 mph61%30.15 "Hg10 mi
8:50 am75 °FSunny.8 mph61%30.15 "Hg10 mi
8:20 am73 °FSunny.7 mph69%30.15 "Hg10 mi
7:50 am70 °FSunny.7 mph73%30.15 "Hg10 mi
7:20 am68 °FPassing clouds.5 mph78%30.15 "HgN/A
6:50 am64 °FPassing clouds.3 mph88%30.15 "HgN/A
6:20 am63 °FSunny.2 mph88%30.15 "Hg10 mi
5:20 am59 °FClear.5 mph100%30.15 "HgN/A
4:50 am59 °FClear.2 mph94%30.15 "HgN/A
4:20 am59 °FClear.2 mph94%30.15 "HgN/A
Weather by CustomWeather, © 2019

See weather overview